Terminal Aerodrome Forecast
Issued by NWS Sioux Falls, SD

Home | Current Version | Previous Version | Text Only | Print | Product List | Glossary On
Versions: 1 2 3 4 5 6 7 8 9 10 11 12 13 14 15 16 17 18 19 20 21 22 23 24 25 26
440
FTUS43 KFSD 031720
TAFFSD
TAF
KFSD 031720Z 0318/0418 16012KT P6SM OVC080
     FM032000 16013KT P6SM -RASN OVC060
     FM032100 17014KT 3SM -SN OVC035
      TEMPO 0321/0323 2SM -SN OVC022
     FM032300 16013KT 6SM -SN OVC035
     FM040000 18011KT P6SM OVC010
     FM041500 26008KT P6SM BKN015
     FM041700 28010KT P6SM SCT015=

USA.gov is the U.S. government's official web portal to all federal, state and local government web resources and services.